Location: Auckland
(36.8670°S, 174.7670°E)
Time: 03:11:39
(UTC+13:00)

Cosmos 1633 - Pass Details

Date: 24 January 2019
Orbit: 466 x 485 km, 82.5° (Epoch: 17 February)

Event Time Altitude Azimuth Distance (km) Brightness Sun altitude
Rises 23:14:02 0° 198° (SSW) 2,550 7.4 -25.0°
Reaches altitude 10° 23:16:17 10° 208° (SSW) 1,665 6.3 -25.3°
Enters shadow 23:19:17 32° 262° (W) 855 4.1 -25.7°
